WJA1845 KMSP-CYXE

Flight info

Callsign WJA1845
Flight time N/A
Altitude 36000
Route KBREW2 FAR DCT KP15C DCT EMLIK DCT AMUNA DUNEM7
Aircraft B38M/M-SDE1FGHILORVWXY/HB1

Departure

Time N/A
Airport Minneapolis–Saint Paul International Airport / Wold–Chamberlain Field (KMSP)

Arrival

Time 2026-04-27 00:02
Airport Saskatoon John G. Diefenbaker International Airport (CYXE)
Time Latitude Longitude Altitude Speed Heading
2026-04-26 23:30 50.82867 -103.61299 36154 ft 434 kts 299°
2026-04-26 23:31 50.84521 -103.65298 36151 ft 434 kts 299°
2026-04-26 23:31 50.87819 -103.73294 36156 ft 429 kts 299°
2026-04-26 23:31 50.89418 -103.77175 36122 ft 414 kts 299°
2026-04-26 23:32 50.90973 -103.80957 35842 ft 406 kts 299°
2026-04-26 23:32 50.92511 -103.84710 35323 ft 405 kts 298°
2026-04-26 23:32 50.94047 -103.88463 34805 ft 405 kts 298°
2026-04-26 23:32 50.95578 -103.92205 34315 ft 404 kts 298°
2026-04-26 23:33 50.97104 -103.95937 33786 ft 402 kts 298°
2026-04-26 23:33 50.98619 -103.99651 33239 ft 399 kts 298°
2026-04-26 23:33 51.00102 -104.03291 32774 ft 396 kts 297°
2026-04-26 23:33 51.01589 -104.06944 32322 ft 392 kts 297°
2026-04-26 23:34 51.03060 -104.10565 31870 ft 388 kts 296°
2026-04-26 23:34 51.04515 -104.14151 31415 ft 385 kts 296°
2026-04-26 23:34 51.05957 -104.17710 30983 ft 381 kts 296°
2026-04-26 23:34 51.07385 -104.21240 30551 ft 378 kts 295°
2026-04-26 23:35 51.08801 -104.24746 30104 ft 374 kts 295°
2026-04-26 23:35 51.10201 -104.28215 29618 ft 370 kts 295°
2026-04-26 23:35 51.11581 -104.31641 29201 ft 365 kts 295°
2026-04-26 23:35 51.12942 -104.35023 28807 ft 360 kts 295°
2026-04-26 23:36 51.14281 -104.38353 28425 ft 355 kts 294°
2026-04-26 23:36 51.15161 -104.40545 28172 ft 352 kts 294°
2026-04-26 23:36 51.16470 -104.43810 27791 ft 347 kts 294°
2026-04-26 23:36 51.17758 -104.47025 27424 ft 342 kts 294°
2026-04-26 23:37 51.19032 -104.50206 27068 ft 338 kts 294°
2026-04-26 23:37 51.20286 -104.53347 26711 ft 333 kts 294°
2026-04-26 23:37 51.21523 -104.56447 26366 ft 329 kts 293°
2026-04-26 23:37 51.22745 -104.59514 26026 ft 326 kts 293°
2026-04-26 23:38 51.23955 -104.62553 25684 ft 322 kts 293°
2026-04-26 23:38 51.25146 -104.65549 25351 ft 318 kts 293°
2026-04-26 23:38 51.26327 -104.68522 25025 ft 315 kts 293°
2026-04-26 23:38 51.27477 -104.71423 24708 ft 311 kts 292°
2026-04-26 23:39 51.28629 -104.74329 24389 ft 308 kts 292°
2026-04-26 23:39 51.29769 -104.77210 24073 ft 305 kts 292°
2026-04-26 23:39 51.30898 -104.80065 23764 ft 302 kts 292°
2026-04-26 23:39 51.32011 -104.82883 23398 ft 299 kts 292°
2026-04-26 23:40 51.33117 -104.85683 23063 ft 294 kts 292°
2026-04-26 23:40 51.34199 -104.88428 22760 ft 290 kts 292°
2026-04-26 23:40 51.35267 -104.91141 22462 ft 285 kts 293°
2026-04-26 23:40 51.36312 -104.93799 22178 ft 281 kts 293°
2026-04-26 23:41 51.37368 -104.96487 21883 ft 288 kts 294°
2026-04-26 23:41 51.38428 -104.99190 21586 ft 293 kts 294°
2026-04-26 23:41 51.39513 -105.01956 21291 ft 294 kts 294°
2026-04-26 23:41 51.40599 -105.04728 20995 ft 293 kts 295°
2026-04-26 23:42 51.41681 -105.07494 20696 ft 292 kts 295°
2026-04-26 23:42 51.43837 -105.13012 20107 ft 291 kts 296°
2026-04-26 23:42 51.44907 -105.15756 19812 ft 290 kts 296°
2026-04-26 23:43 51.45973 -105.18489 19520 ft 289 kts 296°
2026-04-26 23:43 51.47038 -105.21224 19222 ft 288 kts 297°
2026-04-26 23:43 51.48098 -105.23948 18939 ft 287 kts 297°
2026-04-26 23:43 51.49157 -105.26671 18657 ft 287 kts 297°
2026-04-26 23:44 51.50213 -105.29392 18339 ft 286 kts 297°
2026-04-26 23:44 51.51265 -105.32103 18010 ft 285 kts 298°
2026-04-26 23:44 51.52311 -105.34803 17702 ft 284 kts 298°
2026-04-26 23:44 51.53339 -105.37457 17415 ft 283 kts 298°
2026-04-26 23:45 51.54375 -105.40138 17127 ft 282 kts 298°
2026-04-26 23:45 51.55607 -105.42615 16760 ft 288 kts 314°
2026-04-26 23:45 51.57131 -105.44703 16449 ft 287 kts 315°
2026-04-26 23:45 51.58639 -105.46797 16139 ft 286 kts 315°
2026-04-26 23:46 51.60145 -105.48869 15841 ft 285 kts 315°
2026-04-26 23:46 51.61653 -105.50933 15564 ft 284 kts 316°
2026-04-26 23:46 51.63156 -105.52984 15264 ft 283 kts 316°
2026-04-26 23:46 51.64655 -105.55026 14977 ft 282 kts 316°
2026-04-26 23:47 51.66150 -105.57064 14678 ft 281 kts 316°
2026-04-26 23:47 51.67644 -105.59100 14397 ft 281 kts 316°
2026-04-26 23:47 51.69133 -105.61132 14108 ft 281 kts 317°
2026-04-26 23:47 51.70625 -105.63169 13802 ft 280 kts 317°
2026-04-26 23:48 51.72111 -105.65199 13478 ft 280 kts 317°
2026-04-26 23:48 51.73588 -105.67220 13176 ft 279 kts 317°
2026-04-26 23:48 51.75067 -105.69245 12887 ft 277 kts 317°
2026-04-26 23:48 51.76535 -105.71256 12601 ft 276 kts 317°
2026-04-26 23:49 51.77981 -105.73239 12318 ft 276 kts 317°
2026-04-26 23:49 51.79442 -105.75244 12034 ft 275 kts 317°
2026-04-26 23:49 51.80896 -105.77242 11747 ft 274 kts 318°
2026-04-26 23:49 51.82347 -105.79237 11468 ft 274 kts 318°
2026-04-26 23:50 51.83795 -105.81230 11183 ft 272 kts 318°
2026-04-26 23:50 51.85233 -105.83210 10897 ft 271 kts 318°
2026-04-26 23:50 51.86664 -105.85183 10612 ft 270 kts 318°
2026-04-26 23:50 51.88094 -105.87155 10332 ft 269 kts 318°
2026-04-26 23:51 51.89505 -105.89104 10171 ft 264 kts 318°
2026-04-26 23:51 51.90897 -105.91028 9923 ft 263 kts 318°
2026-04-26 23:51 51.92289 -105.92953 9621 ft 262 kts 318°
2026-04-26 23:51 51.93672 -105.94867 9325 ft 261 kts 318°
2026-04-26 23:52 51.95052 -105.96779 9049 ft 260 kts 318°
2026-04-26 23:52 51.96362 -105.98777 8733 ft 258 kts 308°
2026-04-26 23:52 51.97380 -106.01153 8458 ft 255 kts 303°
2026-04-26 23:52 51.98360 -106.03517 8207 ft 250 kts 303°
2026-04-26 23:53 51.99325 -106.05839 7950 ft 247 kts 303°
2026-04-26 23:53 52.00282 -106.08132 7698 ft 243 kts 303°
2026-04-26 23:53 52.01214 -106.10361 7443 ft 240 kts 303°
2026-04-26 23:53 52.02143 -106.12587 7175 ft 237 kts 303°
2026-04-26 23:54 52.03061 -106.14785 6933 ft 234 kts 303°
2026-04-26 23:54 52.03968 -106.16959 6685 ft 231 kts 303°
2026-04-26 23:54 52.04893 -106.19178 6417 ft 237 kts 303°
2026-04-26 23:54 52.05815 -106.21393 6146 ft 241 kts 303°
2026-04-26 23:55 52.06757 -106.23657 5877 ft 242 kts 303°
2026-04-26 23:55 52.07698 -106.25920 5676 ft 239 kts 303°
2026-04-26 23:55 52.08611 -106.28116 5555 ft 230 kts 303°
2026-04-26 23:55 52.09492 -106.30237 5432 ft 222 kts 303°
2026-04-26 23:56 52.10337 -106.32275 5310 ft 213 kts 303°
2026-04-26 23:56 52.11147 -106.34230 5188 ft 204 kts 303°
2026-04-26 23:56 52.11926 -106.36110 5070 ft 201 kts 303°
2026-04-26 23:56 52.12722 -106.38033 4957 ft 206 kts 303°
2026-04-26 23:57 52.13494 -106.39899 4877 ft 192 kts 303°
2026-04-26 23:57 52.14085 -106.41729 4707 ft 176 kts 291°
2026-04-26 23:57 52.14424 -106.43597 4417 ft 169 kts 284°
2026-04-26 23:57 52.14661 -106.45437 4187 ft 164 kts 283°
2026-04-26 23:58 52.14883 -106.47254 4077 ft 164 kts 283°
2026-04-26 23:58 52.15104 -106.49065 3962 ft 163 kts 282°
2026-04-26 23:58 52.15321 -106.50875 3856 ft 162 kts 282°
2026-04-26 23:58 52.15538 -106.52662 3715 ft 156 kts 282°
2026-04-26 23:59 52.15732 -106.54281 3510 ft 137 kts 283°
2026-04-26 23:59 52.15912 -106.55773 3318 ft 132 kts 283°
2026-04-26 23:59 52.16088 -106.57228 3138 ft 131 kts 283°
2026-04-26 23:59 52.16265 -106.58670 2950 ft 129 kts 283°
2026-04-27 00:00 52.16440 -106.60105 2772 ft 129 kts 283°
2026-04-27 00:00 52.16616 -106.61535 2551 ft 128 kts 283°
2026-04-27 00:00 52.16787 -106.62954 2349 ft 128 kts 282°
2026-04-27 00:00 52.16958 -106.64357 2149 ft 126 kts 281°
2026-04-27 00:01 52.17128 -106.65758 1971 ft 127 kts 282°
2026-04-27 00:01 52.17295 -106.67157 1801 ft 124 kts 282°
2026-04-27 00:01 52.17457 -106.68522 1671 ft 118 kts 282°
2026-04-27 00:01 52.17586 -106.69595 1668 ft 65 kts 281°
2026-04-27 00:02 52.17653 -106.70152 1650 ft 48 kts 280°
2026-04-27 00:02 52.17715 -106.70673 1650 ft 45 kts 281°
2026-04-27 00:02 52.17772 -106.71151 1654 ft 41 kts 281°
2026-04-27 00:02 52.17825 -106.71591 1653 ft 37 kts 282°
2026-04-27 00:03 52.17796 -106.71797 1652 ft 18 kts 186°
2026-04-27 00:03 52.17682 -106.71717 1652 ft 19 kts 145°
2026-04-27 00:03 52.17570 -106.71594 1652 ft 20 kts 147°
2026-04-27 00:03 52.17482 -106.71421 1652 ft 21 kts 101°
2026-04-27 00:04 52.17453 -106.71178 1652 ft 23 kts 100°
2026-04-27 00:04 52.17423 -106.70919 1652 ft 24 kts 101°
2026-04-27 00:04 52.17390 -106.70647 1652 ft 25 kts 99°
2026-04-27 00:04 52.17354 -106.70361 1652 ft 26 kts 104°
2026-04-27 00:05 52.17317 -106.70064 1652 ft 27 kts 99°
2026-04-27 00:05 52.17281 -106.69752 1652 ft 29 kts 101°
2026-04-27 00:05 52.17244 -106.69426 1652 ft 30 kts 99°
2026-04-27 00:05 52.17205 -106.69122 1652 ft 11 kts 110°
2026-04-27 00:06 52.17151 -106.69129 1652 ft 10 kts 221°
2026-04-27 00:06 52.17112 -106.69227 1652 ft 10 kts 238°
2026-04-27 00:06 52.17063 -106.69219 1652 ft 8 kts 154°
2026-04-27 00:06 52.17036 -106.69202 1652 ft 1 kts 157°
2026-04-27 00:07 52.17026 -106.69195 1652 ft 0 kts 157°